Weather History for KCAG - September, 2012

Change the Weather History Date:

Wednesday, September 26, 2012

  Actual Average Record
Temperature  
Mean Temperature 55 °F 51 °F  
Max Temperature 62 °F 70 °F 86 °F (2014)
Min Temperature 48 °F 33 °F 24 °F (2005)
Degree Days  
Heating Degree Days 10 14  
Month to date heating degree days 180 228  
Since 1 July heating degree days 188 305  
Cooling Degree Days 0 0  
Month to date cooling degree days 2 0  
Year to date cooling degree days 344 140  
Growing Degree Days 5 (Base 50)    
Moisture  
Dew Point 45 °F    
Average Humidity 72    
Maximum Humidity 93    
Minimum Humidity 51    
Precipitation  
Precipitation 0.31 in 0.06 in 0.32 in (1997)
Month to date precipitation 1.46 1.65  
Year to date precipitation 4.70 11.71  
Sea Level Pressure  
Sea Level Pressure 30.09 in    
Wind  
Wind Speed 3 mph (East)    
Max Wind Speed 18 mph    
Max Gust Speed 23 mph    
Visibility 9 miles    
Events Rain    
T = Trace of Precipitation, MM = Missing Value Source: NWS Daily Summary

Daily Weather History Graph

Daily Weather History Graph

Search for Another Location

Airport or City:

Trip Planner

Search our weather history database for the weather conditions in past years. The results will help you decide how hot, cold, wet, or windy it might be!

Date:

Astronomy

Sep. 26, 2012 Rise Set
Actual Time 7:02 AM MDT 6:59 PM MDT
Civil Twilight 6:34 AM MDT 7:26 PM MDT
Nautical Twilight 6:03 AM MDT 7:58 PM MDT
Astronomical Twilight 5:30 AM MDT 8:30 PM MDT
Moon 5:01 PM MDT (9/26) 3:30 AM MDT (9/26)
Length of Visible Light 12h 51m
Length of Day
11h 57m
Waxing Gibbous, 88% of the Moon is Illuminated
Sep 26
Waxing Gibbous
Sep 29
Full
Oct 8
Last Quarter
Oct 15
New
Oct 21
First Quarter

Hourly Weather History & Observations

Time (MDT) Temp. Dew Point Humidity Pressure Visibility Wind Dir Wind Speed Gust Speed Precip Events Conditions
12:53 AM 50.0 °F 46.0 °F 86% 29.99 in 10.0 mi Calm Calm - 0.00 in   Overcast
1:53 AM 50.0 °F 46.9 °F 89% 29.99 in 10.0 mi Calm Calm - N/A   Overcast
2:53 AM 50.0 °F 46.0 °F 86% 29.98 in 10.0 mi Calm Calm - N/A   Overcast
3:53 AM 48.9 °F 46.0 °F 90% 29.98 in 10.0 mi Calm Calm - N/A   Mostly Cloudy
4:53 AM 48.0 °F 45.0 °F 89% 29.99 in 10.0 mi Calm Calm - 0.00 in   Overcast
5:48 AM 48.2 °F 46.4 °F 93% 30.14 in 10.0 mi Calm Calm - 0.01 in Rain Light Rain
5:53 AM 48.9 °F 46.0 °F 90% 30.01 in 9.0 mi Calm Calm - 0.02 in Rain Rain
6:53 AM 48.9 °F 46.0 °F 90% 30.04 in 10.0 mi East 3.5 mph - 0.03 in Rain Light Rain
7:45 AM 48.2 °F 46.4 °F 93% 30.16 in 7.0 mi East 6.9 mph - 0.03 in Rain Light Rain
7:53 AM 48.9 °F 46.0 °F 90% 30.06 in 7.0 mi ENE 6.9 mph - 0.04 in Rain Light Rain
8:53 AM 48.9 °F 45.0 °F 86% 30.08 in 10.0 mi ENE 10.4 mph - 0.00 in Rain Light Rain
9:37 AM 50.0 °F 44.6 °F 82% 30.19 in 10.0 mi ENE 6.9 mph - N/A   Overcast
9:53 AM 51.1 °F 45.0 °F 80% 30.09 in 10.0 mi East 5.8 mph - 0.01 in   Unknown
10:16 AM 51.8 °F 42.8 °F 71% 30.19 in 10.0 mi East 6.9 mph - N/A   Overcast
10:25 AM 51.8 °F 42.8 °F 71% 30.19 in 10.0 mi East 5.8 mph - N/A   Overcast
10:53 AM 54.0 °F 45.0 °F 72% 30.08 in 10.0 mi ENE 8.1 mph - N/A   Overcast
11:53 AM 55.9 °F 43.0 °F 62% 30.06 in 10.0 mi East 4.6 mph - N/A   Mostly Cloudy
12:53 PM 57.9 °F 42.1 °F 56% 30.05 in 10.0 mi Variable 3.5 mph - N/A   Overcast
1:53 PM 57.9 °F 44.1 °F 60% 30.04 in 10.0 mi Calm Calm - 0.02 in   Mostly Cloudy
2:53 PM 59.0 °F 43.0 °F 55% 30.02 in 10.0 mi Calm Calm - N/A   Overcast
3:53 PM 60.8 °F 42.8 °F 52% 30.14 in 10.0 mi Calm Calm - N/A   Mostly Cloudy
4:53 PM 52.0 °F 46.0 °F 80% 30.07 in 4.0 mi South 15.0 mph - 0.01 in Rain Light Rain
5:05 PM 51.8 °F 46.4 °F 82% 30.18 in 2.5 mi SW 10.4 mph - 0.04 in Rain Rain
5:16 PM 51.8 °F 46.4 °F 82% 30.17 in 9.0 mi West 6.9 mph - 0.04 in Rain Light Rain
5:53 PM 54.0 °F 46.0 °F 75% 30.06 in 10.0 mi East 3.5 mph - 0.04 in   Clear
6:53 PM 52.0 °F 46.0 °F 80% 30.07 in 10.0 mi Calm Calm - N/A   Clear
7:53 PM 50.0 °F 46.9 °F 89% 30.11 in 10.0 mi Calm Calm - N/A   Mostly Cloudy
8:53 PM 51.1 °F 46.0 °F 83% 30.12 in 10.0 mi West 8.1 mph - 0.00 in   Mostly Cloudy
9:53 PM 50.0 °F 46.0 °F 86% 30.13 in 10.0 mi West 4.6 mph - 0.01 in Rain Light Rain
10:53 PM 50.0 °F 46.4 °F 87% 30.23 in 10.0 mi Calm Calm - N/A   Overcast
11:25 PM 51.8 °F 46.4 °F 82% 30.24 in 10.0 mi ESE 3.5 mph - 0.00 in Rain Light Rain
11:53 PM 50.0 °F 46.0 °F 86% 30.13 in 7.0 mi SE 6.9 mph - 0.02 in Rain Light Rain